This demonstration page uses our WeatherBlox Daily Observations layout. Learn more.

36.17497, -115.13722

Hourly Observations for July 25, 2015

Temp ( °F °C ) Dew Point ( °F °C ) Humidity (%) Winds ( mph kmh ) Pressure ( in mb ) Visibility ( mi km ) Precip ( " mm )
12:53 am 00:53 Clear 86 30 34 1 15 15 W 6 9 29.83 1010 10 16.09344 0 0
1:53 am 01:53 Clear 82 28 34 1 17 17 ESE 5 7 29.85 1011 10 16.09344 0 0
2:53 am 02:53 Clear 82 28 37 3 20 20 ESE 5 7 29.85 1011 10 16.09344 0 0
3:53 am 03:53 Clear 79 26 32 0 18 18 N 6 9 29.85 1011 10 16.09344 0 0
4:53 am 04:53 Clear 77 25 32 0 19 19 NW 3 6 29.85 1011 10 16.09344 0 0
5:53 am 05:53 Sunny 73 23 32 0 22 22 N 7 11 29.88 1012 10 16.09344 0 0
6:53 am 06:53 Sunny 75 24 32 0 21 21 NNW 6 9 29.91 1013 10 16.09344 0 0
7:53 am 07:53 Sunny 81 27 39 4 23 23 NNE 6 9 29.88 1012 10 16.09344 0 0
8:53 am 08:53 Sunny 82 28 39 4 21 21 Calm 29.91 1013 10 16.09344 0 0
9:53 am 09:53 Sunny 88 31 39 4 18 18 NNE 3 6 29.85 1011 10 16.09344 0 0
10:53 am 10:53 Sunny 91 33 39 4 16 16 Calm 29.83 1010 10 16.09344 0 0
11:53 am 11:53 Sunny 93 34 37 3 14 14 SSE 9 15 29.83 1010 10 16.09344 0 0
12:53 pm 12:53 Sunny 97 36 36 2 12 12 N 3 6 29.8 1009 10 16.09344 0 0
1:53 pm 13:53 Sunny 97 36 34 1 11 11 N 5 7 29.77 1008 10 16.09344 0 0
2:53 pm 14:53 Sunny 99 37 36 2 11 11 SE 7 11 29.71 1006 10 16.09344 0 0
3:28 pm 15:28 Sunny 100 38 34 1 10 10 SSW 15 24 29.68 1005 10 16.09344 0 0
3:53 pm 15:53 Sunny 100 38 34 1 10 10 SSE 9 15 29.68 1005 10 16.09344 0 0
4:53 pm 16:53 Sunny 102 39 25 -4 6 6 S 14 22 29.62 1003 10 16.09344 0 0
5:53 pm 17:53 Sunny 102 39 25 -4 6 6 SW 12 19 29.62 1003 10 16.09344 0 0
6:53 pm 18:53 Sunny 100 38 23 -5 6 6 SW 12 19 29.59 1002 10 16.09344 0 0
7:53 pm 19:53 Clear 99 37 21 -6 6 6 SW 9 15 29.62 1003 10 16.09344 0 0
8:53 pm 20:53 Clear 93 34 27 -3 9 9 SSW 9 15 29.65 1004 10 16.09344 0 0
9:53 pm 21:53 Clear 91 33 28 -2 10 10 SSW 10 17 29.65 1004 10 16.09344 0 0
10:53 pm 22:53 Clear 90 32 28 -2 11 11 SW 10 17 29.65 1004 10 16.09344 0 0
11:53 pm 23:53 Clear 88 31 28 -2 12 12 S 6 9 29.65 1004 10 16.09344 0 0

Powered by AerisWeather